| time (UTC) | temp F | wind direction | speed knots | gust knots | rain 1hr in | rain 24hr in | rain mn in | humidity % | barometer mb |
| 20260502203508 | 49 | 273 | 16.5 | 0.0 | 0.00 | 0.00 | 0.00 | 61 | 1010.3 |
| 20260502203013 | 49 | 276 | 17.4 | 0.0 | 0.00 | 0.00 | 0.00 | 57 | 1010.3 |
| 20260502202510 | 50 | 273 | 18.2 | 0.0 | 0.00 | 0.00 | 0.00 | 58 | 1010.2 |
| 20260502202008 | 50 | 262 | 18.2 | 0.0 | 0.00 | 0.00 | 0.00 | 58 | 1010.3 |
| 20260502201509 | 51 | 277 | 17.4 | 0.0 | 0.00 | 0.00 | 0.00 | 59 | 1010.4 |
| 20260502201007 | 50 | 276 | 18.2 | 0.0 | 0.00 | 0.00 | 0.00 | 61 | 1010.6 |
| 20260502200609 | 50 | 271 | 19.1 | 0.0 | 0.00 | 0.00 | 0.00 | 60 | 1010.5 |
| 20260502200007 | 50 | 257 | 20.9 | 0.0 | 0.00 | 0.00 | 0.00 | 61 | 1010.4 |
| 20260502195506 | 50 | 279 | 20.9 | 0.0 | 0.00 | 0.00 | 0.00 | 61 | 1010.5 |
| 20260502195007 | 50 | 266 | 20.0 | 0.0 | 0.00 | 0.00 | 0.00 | 58 | 1010.5 |
| 20260502194506 | 50 | 261 | 18.2 | 0.0 | 0.00 | 0.00 | 0.00 | 57 | 1010.5 |
| 20260502194005 | 50 | 260 | 17.4 | 0.0 | 0.00 | 0.00 | 0.00 | 59 | 1010.5 |
| 20260502193505 | 50 | 265 | 17.4 | 0.0 | 0.00 | 0.00 | 0.00 | 63 | 1010.5 |
| 20260502193005 | 50 | 265 | 17.4 | 0.0 | 0.00 | 0.00 | 0.00 | 62 | 1010.5 |
| 20260502192505 | 50 | 277 | 18.2 | 0.0 | 0.00 | 0.00 | 0.00 | 60 | 1010.6 |
| 20260502192005 | 50 | 269 | 18.2 | 0.0 | 0.00 | 0.00 | 0.00 | 62 | 1010.6 |
| 20260502191514 | 50 | 257 | 17.4 | 0.0 | 0.00 | 0.00 | 0.00 | 65 | 1010.5 |
| 20260502191004 | 50 | 275 | 18.2 | 0.0 | 0.00 | 0.00 | 0.00 | 62 | 1010.5 |
| 20260502190504 | 51 | 254 | 18.2 | 0.0 | 0.00 | 0.00 | 0.00 | 61 | 1010.6 |
| 20260502190004 | 51 | 277 | 19.1 | 0.0 | 0.00 | 0.00 | 0.00 | 59 | 1010.5 |
| 20260502185506 | 52 | 261 | 18.2 | 0.0 | 0.00 | 0.00 | 0.00 | 56 | 1010.3 |
| 20260502185002 | 52 | 259 | 18.2 | 0.0 | 0.00 | 0.00 | 0.00 | 57 | 1010.3 |
| 20260502184507 | 52 | 258 | 15.6 | 0.0 | 0.00 | 0.00 | 0.00 | 60 | 1010.3 |
| 20260502184003 | 52 | 254 | 13.0 | 0.0 | 0.00 | 0.00 | 0.00 | 58 | 1010.3 |
| 20260502183503 | 52 | 252 | 13.0 | 0.0 | 0.00 | 0.00 | 0.00 | 55 | 1010.3 |
| 20260502183001 | 53 | 279 | 13.9 | 0.0 | 0.00 | 0.00 | 0.00 | 56 | 1010.3 |
| 20260502182604 | 53 | 240 | 13.9 | 0.0 | 0.00 | 0.00 | 0.00 | 61 | 1010.3 |
| 20260502182059 | 53 | 254 | 13.9 | 0.0 | 0.00 | 0.00 | 0.00 | 61 | 1010.3 |
| 20260502181559 | 53 | 251 | 14.8 | 0.0 | 0.00 | 0.00 | 0.00 | 62 | 1010.3 |
| 20260502181058 | 53 | 264 | 14.8 | 0.0 | 0.00 | 0.00 | 0.00 | 63 | 1010.3 |
| 20260502180557 | 52 | 244 | 10.4 | 0.0 | 0.00 | 0.00 | 0.00 | 66 | 1010.4 |
| 20260502180107 | 52 | 254 | 7.8 | 0.0 | 0.00 | 0.00 | 0.00 | 58 | 1010.5 |
| 20260502164051 | 52 | 260 | 13.9 | 0.0 | 0.00 | 0.00 | 0.00 | 61 | 1010.5 |
| 20260502163555 | 52 | 264 | 11.3 | 0.0 | 0.00 | 0.00 | 0.00 | 65 | 1010.4 |
| 20260502163050 | 51 | 240 | 12.2 | 0.0 | 0.00 | 0.00 | 0.00 | 62 | 1010.5 |
| 20260502162547 | 51 | 255 | 12.2 | 0.0 | 0.00 | 0.00 | 0.00 | 69 | 1010.6 |
| 20260502162045 | 50 | 257 | 8.7 | 0.0 | 0.00 | 0.00 | 0.00 | 67 | 1010.6 |
| 20260502161544 | 50 | 257 | 8.7 | 0.0 | 0.00 | 0.00 | 0.00 | 67 | 1010.5 |
| 20260502161044 | 49 | 277 | 8.7 | 0.0 | 0.00 | 0.00 | 0.00 | 66 | 1010.5 |
| 20260502160542 | 48 | 271 | 8.7 | 0.0 | 0.00 | 0.00 | 0.00 | 68 | 1010.5 |
| 20260502152038 | 47 | 279 | 8.7 | 0.0 | 0.00 | 0.00 | 0.00 | 73 | 1010.9 |
| 20260502151536 | 47 | 281 | 7.0 | 0.0 | 0.00 | 0.00 | 0.00 | 69 | 1010.9 |
| 20260502151037 | 47 | 306 | 7.8 | 0.0 | 0.00 | 0.00 | 0.00 | 70 | 1011.0 |
| 20260502150536 | 47 | 282 | 7.8 | 0.0 | 0.00 | 0.00 | 0.00 | 74 | 1011.0 |
| 20260502130535 | 45 | 276 | 12.2 | 0.0 | 0.00 | 0.00 | 0.00 | 79 | 1011.2 |
| 20260502123532 | 44 | 276 | 9.6 | 0.0 | 0.00 | 0.00 | 0.00 | 81 | 1010.8 |
| 20260502123031 | 44 | 266 | 8.7 | 0.0 | 0.00 | 0.00 | 0.00 | 82 | 1011.0 |
| 20260502122529 | 44 | 267 | 7.8 | 0.0 | 0.00 | 0.00 | 0.00 | 83 | 1010.9 |
| 20260502122031 | 44 | 261 | 7.8 | 0.0 | 0.00 | 0.00 | 0.00 | 83 | 1010.9 |
| 20260502121539 | 44 | 255 | 9.6 | 0.0 | 0.00 | 0.00 | 0.00 | 82 | 1010.8 |
| 20260502121029 | 44 | 275 | 10.4 | 0.0 | 0.00 | 0.00 | 0.00 | 82 | 1010.8 |
| 20260502120528 | 44 | 279 | 10.4 | 0.0 | 0.00 | 0.00 | 0.00 | 84 | 1010.9 |
| 20260502120128 | 44 | 264 | 10.4 | 0.0 | 0.00 | 0.00 | 0.00 | 84 | 1011.0 |
| 20260502115528 | 44 | 260 | 9.6 | 0.0 | 0.00 | 0.00 | 0.00 | 85 | 1011.0 |
| 20260502115028 | 43 | 261 | 10.4 | 0.0 | 0.00 | 0.00 | 0.00 | 85 | 1010.9 |
| 20260502114528 | 43 | 261 | 11.3 | 0.0 | 0.00 | 0.00 | 0.00 | 84 | 1011.0 |
| 20260502114026 | 43 | 263 | 12.2 | 0.0 | 0.00 | 0.00 | 0.00 | 85 | 1010.9 |
| 20260502113527 | 43 | 258 | 12.2 | 0.0 | 0.00 | 0.00 | 0.00 | 85 | 1010.8 |
| 20260502113026 | 43 | 264 | 12.2 | 0.0 | 0.00 | 0.00 | 0.00 | 85 | 1010.9 |
| 20260502112525 | 43 | 263 | 10.4 | 0.0 | 0.00 | 0.00 | 0.00 | 86 | 1010.8 |
| 20260502112024 | 43 | 261 | 10.4 | 0.0 | 0.00 | 0.00 | 0.00 | 86 | 1010.7 |
| 20260502111526 | 43 | 252 | 10.4 | 0.0 | 0.00 | 0.00 | 0.00 | 86 | 1010.6 |
| 20260502111025 | 43 | 281 | 10.4 | 0.0 | 0.00 | 0.00 | 0.00 | 87 | 1010.6 |
| 20260502110525 | 43 | 262 | 9.6 | 0.0 | 0.00 | 0.00 | 0.00 | 86 | 1010.5 |
| 20260502110031 | 43 | 244 | 8.7 | 0.0 | 0.00 | 0.00 | 0.00 | 85 | 1010.5 |
| 20260502105523 | 43 | 277 | 7.8 | 0.0 | 0.00 | 0.00 | 0.00 | 86 | 1010.5 |
| 20260502105022 | 43 | 288 | 7.8 | 0.0 | 0.00 | 0.00 | 0.00 | 86 | 1010.3 |
| 20260502104522 | 43 | 267 | 8.7 | 0.0 | 0.00 | 0.00 | 0.00 | 87 | 1010.2 |
| 20260502104021 | 42 | 294 | 9.6 | 0.0 | 0.00 | 0.00 | 0.00 | 88 | 1010.3 |
| 20260502103521 | 42 | 281 | 9.6 | 0.0 | 0.00 | 0.00 | 0.00 | 90 | 1010.3 |
| 20260502103022 | 42 | 248 | 10.4 | 0.0 | 0.00 | 0.00 | 0.00 | 89 | 1010.1 |
| 20260502102521 | 42 | 277 | 11.3 | 0.0 | 0.00 | 0.00 | 0.00 | 90 | 1010.2 |
| 20260502102021 | 42 | 243 | 13.0 | 0.0 | 0.00 | 0.00 | 0.00 | 90 | 1010.2 |
| 20260502101521 | 42 | 257 | 13.0 | 0.0 | 0.00 | 0.00 | 0.00 | 90 | 1010.0 |
| 20260502101020 | 42 | 247 | 12.2 | 0.0 | 0.00 | 0.00 | 0.00 | 90 | 1009.9 |
| 20260502100520 | 42 | 246 | 12.2 | 0.0 | 0.00 | 0.00 | 0.00 | 90 | 1009.9 |
| 20260502091512 | 42 | 244 | 2.6 | 0.0 | 0.00 | 0.00 | 0.00 | 89 | 1009.6 |
| 20260502091011 | 42 | 229 | 2.6 | 0.0 | 0.00 | 0.00 | 0.00 | 89 | 1009.6 |
| 20260502090511 | 43 | 231 | 2.6 | 0.0 | 0.00 | 0.00 | 0.00 | 89 | 1009.6 |
| 20260502071057 | 44 | 207 | 0.9 | 0.0 | 0.00 | 0.00 | 0.00 | 87 | 1009.3 |
| 20260502070557 | 44 | 207 | 0.9 | 0.0 | 0.00 | 0.00 | 0.00 | 87 | 1009.7 |
| 20260502070057 | 44 | 219 | 0.9 | 0.0 | 0.00 | 0.00 | 0.00 | 87 | 1009.8 |
| 20260502065557 | 44 | 213 | 2.6 | 0.0 | 0.00 | 0.00 | 0.00 | 87 | 1009.9 |
| 20260502065056 | 44 | 232 | 4.3 | 0.0 | 0.00 | 0.00 | 0.00 | 87 | 1009.8 |
| 20260502064601 | 44 | 250 | 5.2 | 0.0 | 0.00 | 0.00 | 0.00 | 86 | 1009.8 |
| 20260502064059 | 44 | 250 | 6.1 | 0.0 | 0.00 | 0.00 | 0.00 | 86 | 1009.8 |
| 20260502063556 | 44 | 261 | 6.1 | 0.0 | 0.00 | 0.00 | 0.00 | 86 | 1009.7 |
| 20260502063059 | 44 | 271 | 6.1 | 0.0 | 0.00 | 0.00 | 0.00 | 86 | 1009.7 |
| 20260502062556 | 44 | 278 | 5.2 | 0.0 | 0.00 | 0.00 | 0.00 | 87 | 1009.6 |
| 20260502062053 | 44 | 283 | 4.3 | 0.0 | 0.00 | 0.00 | 0.00 | 88 | 1009.6 |
| 20260502061554 | 44 | 274 | 4.3 | 0.0 | 0.00 | 0.00 | 0.00 | 88 | 1009.7 |
| 20260502061050 | 44 | 266 | 4.3 | 0.0 | 0.00 | 0.00 | 0.00 | 87 | 1009.7 |
| 20260502060549 | 44 | 275 | 3.5 | 0.0 | 0.00 | 0.00 | 0.00 | 87 | 1009.9 |
| 20260502060048 | 44 | 248 | 1.7 | 0.0 | 0.00 | 0.00 | 0.00 | 87 | 1010.0 |
| 20260502055549 | 44 | 221 | 0.9 | 0.0 | 0.00 | 0.00 | 0.00 | 87 | 1010.0 |
| 20260502055048 | 44 | 220 | 0.9 | 0.0 | 0.00 | 0.00 | 0.00 | 87 | 1010.0 |
| 20260502054546 | 44 | 223 | 0.9 | 0.0 | 0.00 | 0.00 | 0.00 | 86 | 1010.0 |
| 20260502054045 | 44 | 222 | 0.0 | 0.0 | 0.00 | 0.00 | 0.00 | 86 | 1010.2 |
| 20260502053545 | 44 | 215 | 0.9 | 0.0 | 0.00 | 0.00 | 0.00 | 86 | 1010.1 |
| 20260502053045 | 45 | 178 | 0.9 | 0.0 | 0.00 | 0.00 | 0.00 | 86 | 1010.1 |
| 20260502052544 | 45 | 180 | 0.0 | 0.0 | 0.00 | 0.00 | 0.00 | 85 | 1010.2 |
| 20260502052047 | 45 | 180 | 0.9 | 0.0 | 0.00 | 0.00 | 0.00 | 85 | 1010.2 |
| 20260502051543 | 45 | 180 | 0.9 | 0.0 | 0.00 | 0.00 | 0.00 | 84 | 1010.2 |
| 20260502051042 | 45 | 181 | 1.7 | 0.0 | 0.00 | 0.00 | 0.00 | 84 | 1010.2 |
| 20260502050541 | 45 | 182 | 1.7 | 0.0 | 0.00 | 0.00 | 0.00 | 83 | 1010.2 |
| 20260502050046 | 45 | 178 | 1.7 | 0.0 | 0.00 | 0.00 | 0.00 | 83 | 1010.2 |
| 20260502045540 | 46 | 180 | 0.9 | 0.0 | 0.00 | 0.00 | 0.00 | 82 | 1010.2 |
| 20260502045039 | 46 | 207 | 0.0 | 0.0 | 0.00 | 0.00 | 0.00 | 81 | 1010.2 |
| 20260502044538 | 46 | 206 | 0.0 | 0.0 | 0.00 | 0.00 | 0.00 | 79 | 1010.1 |
| 20260502044036 | 46 | 207 | 0.0 | 0.0 | 0.00 | 0.00 | 0.00 | 79 | 1010.1 |
| 20260502043536 | 47 | 207 | 0.9 | 0.0 | 0.00 | 0.00 | 0.00 | 77 | 1010.0 |
| 20260502043037 | 47 | 230 | 2.6 | 0.0 | 0.00 | 0.00 | 0.00 | 75 | 1010.2 |
| 20260502042537 | 47 | 229 | 3.5 | 0.0 | 0.00 | 0.00 | 0.00 | 73 | 1010.2 |
| 20260502042034 | 47 | 230 | 3.5 | 0.0 | 0.00 | 0.00 | 0.00 | 73 | 1010.2 |
| 20260502041533 | 47 | 246 | 3.5 | 0.0 | 0.00 | 0.00 | 0.00 | 73 | 1010.2 |
| 20260502041031 | 47 | 223 | 3.5 | 0.0 | 0.00 | 0.00 | 0.00 | 73 | 1010.1 |
| 20260502040533 | 47 | 242 | 3.5 | 0.0 | 0.00 | 0.00 | 0.00 | 72 | 1010.2 |
| 20260502040030 | 47 | 236 | 5.2 | 0.0 | 0.00 | 0.00 | 0.00 | 73 | 1010.0 |
| 20260502035530 | 47 | 216 | 5.2 | 0.0 | 0.00 | 0.00 | 0.00 | 72 | 1010.0 |
| 20260502035030 | 47 | 225 | 4.3 | 0.0 | 0.00 | 0.00 | 0.00 | 72 | 1010.0 |
| 20260502034530 | 47 | 261 | 5.2 | 0.0 | 0.00 | 0.00 | 0.00 | 73 | 1009.9 |
| 20260502034029 | 47 | 263 | 6.1 | 0.0 | 0.00 | 0.00 | 0.00 | 73 | 1010.1 |
| 20260502033529 | 47 | 260 | 6.1 | 0.0 | 0.00 | 0.00 | 0.00 | 72 | 1010.3 |
| 20260502033039 | 48 | 276 | 6.1 | 0.0 | 0.00 | 0.00 | 0.00 | 71 | 1010.3 |
| 20260502032528 | 48 | 273 | 6.1 | 0.0 | 0.00 | 0.00 | 0.00 | 71 | 1010.3 |
| 20260502032029 | 48 | 271 | 6.1 | 0.0 | 0.00 | 0.00 | 0.00 | 71 | 1010.3 |
| 20260502031529 | 48 | 280 | 6.1 | 0.0 | 0.00 | 0.00 | 0.00 | 70 | 1010.2 |
| 20260502031029 | 48 | 281 | 6.1 | 0.0 | 0.00 | 0.00 | 0.00 | 70 | 1010.2 |
| 20260502030528 | 48 | 286 | 6.1 | 0.0 | 0.00 | 0.00 | 0.00 | 70 | 1010.2 |
| 20260502030028 | 48 | 271 | 6.1 | 0.0 | 0.00 | 0.00 | 0.00 | 70 | 1010.2 |
| 20260502025527 | 48 | 288 | 6.1 | 0.0 | 0.00 | 0.00 | 0.00 | 68 | 1010.2 |
| 20260502025028 | 48 | 283 | 6.1 | 0.0 | 0.00 | 0.00 | 0.00 | 68 | 1010.1 |
| 20260502024528 | 48 | 276 | 7.0 | 0.0 | 0.00 | 0.00 | 0.00 | 69 | 1010.2 |
| 20260502024027 | 49 | 288 | 7.8 | 0.0 | 0.00 | 0.00 | 0.00 | 67 | 1010.2 |
| 20260502023527 | 49 | 285 | 8.7 | 0.0 | 0.00 | 0.00 | 0.00 | 69 | 1010.2 |
| 20260502023027 | 49 | 277 | 9.6 | 0.0 | 0.00 | 0.00 | 0.00 | 68 | 1010.3 |
| 20260502022526 | 49 | 281 | 8.7 | 0.0 | 0.00 | 0.00 | 0.00 | 69 | 1010.3 |
| 20260502022026 | 49 | 284 | 7.0 | 0.0 | 0.00 | 0.00 | 0.00 | 67 | 1010.3 |
| 20260502021526 | 49 | 279 | 4.3 | 0.0 | 0.00 | 0.00 | 0.00 | 66 | 1010.3 |
| 20260502021026 | 49 | 279 | 4.3 | 0.0 | 0.00 | 0.00 | 0.00 | 65 | 1010.3 |
| 20260502020526 | 49 | 333 | 4.3 | 0.0 | 0.00 | 0.00 | 0.00 | 62 | 1010.3 |
| 20260502020026 | 49 | 332 | 4.3 | 0.0 | 0.00 | 0.00 | 0.00 | 64 | 1010.3 |
| 20260502015530 | 49 | 309 | 4.3 | 0.0 | 0.00 | 0.00 | 0.00 | 63 | 1010.3 |
| 20260502015026 | 49 | 339 | 5.2 | 0.0 | 0.00 | 0.00 | 0.00 | 62 | 1010.4 |
| 20260502014529 | 49 | 336 | 5.2 | 0.0 | 0.00 | 0.00 | 0.00 | 63 | 1010.4 |
| 20260502014025 | 49 | 331 | 5.2 | 0.0 | 0.00 | 0.00 | 0.00 | 61 | 1010.3 |
| 20260502013525 | 49 | 338 | 6.1 | 0.0 | 0.00 | 0.00 | 0.00 | 62 | 1010.3 |
| 20260502013026 | 49 | 327 | 6.1 | 0.0 | 0.00 | 0.00 | 0.00 | 62 | 1010.3 |
| 20260502012527 | 49 | 325 | 7.0 | 0.0 | 0.00 | 0.00 | 0.00 | 63 | 1010.2 |
| 20260502012026 | 49 | 325 | 7.0 | 0.0 | 0.00 | 0.00 | 0.00 | 62 | 1010.2 |
| 20260502011525 | 50 | 317 | 7.8 | 0.0 | 0.00 | 0.00 | 0.00 | 62 | 1010.1 |
| 20260502011024 | 50 | 323 | 7.0 | 0.0 | 0.00 | 0.00 | 0.00 | 62 | 1010.0 |
| 20260502010524 | 50 | 317 | 7.0 | 0.0 | 0.00 | 0.00 | 0.00 | 60 | 1009.9 |
| 20260502010025 | 50 | 329 | 7.8 | 0.0 | 0.00 | 0.00 | 0.00 | 60 | 1009.9 |
| 20260502005526 | 50 | 317 | 7.8 | 0.0 | 0.00 | 0.00 | 0.00 | 62 | 1009.9 |
| 20260502005027 | 50 | 289 | 7.8 | 0.0 | 0.00 | 0.00 | 0.00 | 62 | 1009.7 |
| 20260502004539 | 50 | 305 | 7.8 | 0.0 | 0.00 | 0.00 | 0.00 | 59 | 1009.7 |
| 20260502004024 | 51 | 303 | 7.8 | 0.0 | 0.00 | 0.00 | 0.00 | 60 | 1009.6 |
| 20260502003523 | 51 | 306 | 8.7 | 0.0 | 0.00 | 0.00 | 0.00 | 60 | 1009.6 |
| 20260502003024 | 51 | 311 | 8.7 | 0.0 | 0.00 | 0.00 | 0.00 | 60 | 1009.5 |
| 20260502002523 | 51 | 302 | 7.8 | 0.0 | 0.00 | 0.00 | 0.00 | 57 | 1009.5 |
| 20260502002023 | 51 | 309 | 7.8 | 0.0 | 0.00 | 0.00 | 0.00 | 59 | 1009.4 |
| 20260502001526 | 51 | 309 | 8.7 | 0.0 | 0.00 | 0.00 | 0.00 | 61 | 1009.4 |
| 20260502001022 | 51 | 306 | 8.7 | 0.0 | 0.00 | 0.00 | 0.00 | 61 | 1009.4 |
| 20260502000523 | 51 | 306 | 8.7 | 0.0 | 0.00 | 0.00 | 0.00 | 61 | 1009.4 |
| 20260502000031 | 51 | 298 | 8.7 | 0.0 | 0.00 | 0.00 | 0.00 | 65 | 1009.4 |
| 20260501235526 | 51 | 307 | 9.6 | 0.0 | 0.00 | 0.00 | 0.00 | 62 | 1009.4 |
| 20260501235022 | 52 | 304 | 9.6 | 0.0 | 0.00 | 0.00 | 0.00 | 59 | 1009.3 |
| 20260501234529 | 52 | 304 | 7.8 | 0.0 | 0.00 | 0.00 | 0.00 | 62 | 1009.3 |
| 20260501234022 | 52 | 292 | 7.0 | 0.0 | 0.00 | 0.00 | 0.00 | 62 | 1009.2 |
| 20260501233524 | 52 | 292 | 8.7 | 0.0 | 0.00 | 0.00 | 0.00 | 61 | 1009.2 |
| 20260501233022 | 52 | 286 | 11.3 | 0.0 | 0.00 | 0.00 | 0.00 | 60 | 1009.2 |
| 20260501232521 | 52 | 281 | 12.2 | 0.0 | 0.00 | 0.00 | 0.00 | 62 | 1009.2 |
| 20260501232021 | 52 | 284 | 10.4 | 0.0 | 0.00 | 0.00 | 0.00 | 59 | 1009.2 |
| 20260501231535 | 53 | 298 | 10.4 | 0.0 | 0.00 | 0.00 | 0.00 | 54 | 1009.2 |
| 20260501231022 | 53 | 297 | 10.4 | 0.0 | 0.00 | 0.00 | 0.00 | 57 | 1009.1 |
| 20260501230522 | 53 | 265 | 12.2 | 0.0 | 0.00 | 0.00 | 0.00 | 58 | 1009.1 |
| 20260501230025 | 53 | 278 | 12.2 | 0.0 | 0.00 | 0.00 | 0.00 | 56 | 1009.1 |
| 20260501225521 | 53 | 294 | 11.3 | 0.0 | 0.00 | 0.00 | 0.00 | 57 | 1009.0 |
| 20260501225021 | 53 | 267 | 10.4 | 0.0 | 0.00 | 0.00 | 0.00 | 57 | 1009.0 |
| 20260501224520 | 54 | 291 | 10.4 | 0.0 | 0.00 | 0.00 | 0.00 | 56 | 1008.8 |
| 20260501224020 | 54 | 273 | 10.4 | 0.0 | 0.00 | 0.00 | 0.00 | 58 | 1008.8 |
| 20260501223520 | 54 | 263 | 10.4 | 0.0 | 0.00 | 0.00 | 0.00 | 58 | 1008.8 |
| 20260501223020 | 54 | 252 | 10.4 | 0.0 | 0.00 | 0.00 | 0.00 | 57 | 1008.7 |
| 20260501222520 | 55 | 250 | 10.4 | 0.0 | 0.00 | 0.00 | 0.00 | 59 | 1008.7 |
| 20260501222021 | 55 | 250 | 12.2 | 0.0 | 0.00 | 0.00 | 0.00 | 58 | 1008.7 |
| 20260501221520 | 55 | 259 | 12.2 | 0.0 | 0.00 | 0.00 | 0.00 | 58 | 1008.6 |
| 20260501221019 | 55 | 249 | 11.3 | 0.0 | 0.00 | 0.00 | 0.00 | 59 | 1008.6 |
| 20260501220519 | 55 | 252 | 11.3 | 0.0 | 0.00 | 0.00 | 0.00 | 56 | 1008.6 |
| 20260501220019 | 55 | 251 | 12.2 | 0.0 | 0.00 | 0.00 | 0.00 | 56 | 1008.6 |
| 20260501215519 | 55 | 252 | 11.3 | 0.0 | 0.00 | 0.00 | 0.00 | 55 | 1008.6 |
| 20260501215019 | 56 | 263 | 11.3 | 0.0 | 0.00 | 0.00 | 0.00 | 57 | 1008.6 |
| 20260501214521 | 56 | 250 | 13.0 | 0.0 | 0.00 | 0.00 | 0.00 | 56 | 1008.7 |
| 20260501214017 | 56 | 244 | 13.9 | 0.0 | 0.00 | 0.00 | 0.00 | 53 | 1008.6 |
| 20260501213517 | 56 | 261 | 13.9 | 0.0 | 0.00 | 0.00 | 0.00 | 53 | 1008.6 |
| 20260501213017 | 57 | 262 | 13.0 | 0.0 | 0.00 | 0.00 | 0.00 | 55 | 1008.6 |
| 20260501212517 | 57 | 245 | 13.9 | 0.0 | 0.00 | 0.00 | 0.00 | 55 | 1008.6 |
| 20260501212017 | 57 | 246 | 14.8 | 0.0 | 0.00 | 0.00 | 0.00 | 53 | 1008.5 |
| 20260501211524 | 57 | 252 | 14.8 | 0.0 | 0.00 | 0.00 | 0.00 | 56 | 1008.5 |
| 20260501211017 | 57 | 244 | 13.9 | 0.0 | 0.00 | 0.00 | 0.00 | 53 | 1008.5 |
| 20260501210516 | 57 | 254 | 12.2 | 0.0 | 0.00 | 0.00 | 0.00 | 54 | 1008.5 |
| 20260501210016 | 58 | 246 | 12.2 | 0.0 | 0.00 | 0.00 | 0.00 | 51 | 1008.5 |
| 20260501205516 | 58 | 259 | 11.3 | 0.0 | 0.00 | 0.00 | 0.00 | 54 | 1008.5 |
| 20260501205016 | 58 | 243 | 11.3 | 0.0 | 0.00 | 0.00 | 0.00 | 53 | 1008.4 |
| 20260501204516 | 58 | 250 | 13.9 | 0.0 | 0.00 | 0.00 | 0.00 | 51 | 1008.4 |
| 20260501204015 | 58 | 242 | 14.8 | 0.0 | 0.00 | 0.00 | 0.00 | 53 | 1008.4 |